[[{"header":{"parameterUnit":"m.s-1","parameterCategory":1,"la1":30.2991,"la2":30.254,"lo1":-89.0895,"lo2":-89.0444,"dy":0.0017,"dx":0.0017,"nx":28,"ny":28,"refTime":"2025-12-21T09:00:00:Z","depth":0,"parameterNumber":2,"parameterNumberName":"U-component_of_WINDS"},"data":[0,0,0,0,0,0,0,0,0,0,0,0,0,0,0,0,0,0,0,0,0,0,0,0,0,0,0,0,0,0,0,0,0,0,0,0,0,0,0,0,0,0,0,0,0,0,0,0,0,0,0,0,0,0,0,0,0,0,-4.0037,-4.0037,0,-4.0068,-4.0069,-4.0069,-3.9984,-3.9981,-3.9979,-3.9976,-4.001,-4.0013,-4.0016,0,0,0,0,0,0,0,0,0,0,0,0,0,-3.9906,-3.9909,-4.0037,-4.0037,-4.0037,-4.0068,-4.0069,-4.0069,-3.9984,-3.9981,-3.9978,-3.9975,-4.0009,-4.0013,-4.0017,0,0,0,0,0,0,0,0,0,0,0,0,0,-3.9953,-3.991,-4.0037,-3.9999,-3.9996,-4.0068,-4.0069,-4.0069,-3.9985,-3.9981,-3.9977,-3.9973,-4.0007,-4.0012,-4.0017,-4.0128,0,0,-4.0033,-4.0035,0,0,0,0,0,0,0,0,-3.995,-3.9958,-4.0004,-4.0002,-3.9998,-4.0018,-4.0035,-4.0089,-3.9986,-3.9989,-3.9976,-3.9971,-4.0016,-4.002,-4.0035,-4.0129,-4.0131,-4.0033,-4.0036,-4.0038,-4.004,0,0,0,0,0,0,0,-3.9947,-3.9956,-4.0049,-4.0005,-4.0001,-3.9981,-3.9984,-4.0045,-4.0024,-3.9989,-3.9983,-3.9987,-4.0013,-4.003,-4.0035,-4.0131,-4.0033,-4.0037,-4.0041,-4.0042,-4.0322,-4.0326,0,0,0,0,0,0,-3.9948,-3.9954,-4.0048,-4.005,-3.9964,-3.9987,-3.999,-4.0016,-4.0024,-4.0021,-3.9991,-3.9983,-4.0023,-4.0029,-4.0036,-4.0167,-4.0038,-4.0043,-4.0046,-4.0318,-4.0323,-4.0328,0,0,0,0,0,0,-3.9946,-3.9958,-4.0047,-4.0,-4.001,-3.9994,-4.0024,-4.0019,-4.0035,-4.0025,-4.0021,-4.0011,-4.002,-4.0029,-4.0106,-4.0167,-4.0045,-4.005,-4.0312,-4.0319,-4.0325,-4.043,0,0,0,0,0,0,-3.9943,-3.9957,-3.9998,-4.0002,-4.0013,-4.0116,-4.0027,-4.0022,-4.0044,-4.0034,-4.0043,-4.0041,-4.0018,-4.0099,-4.0111,-4.0172,-4.0054,-4.0307,-4.0315,-4.0323,-4.0421,-4.0439,-4.0455,0,0,0,0,0,-3.9938,-4.0026,-4.0,-4.0012,-4.0063,-4.012,-4.0126,-4.0097,-4.0049,-4.009,-4.0085,-4.0041,-4.0159,-4.0108,-4.0121,-4.0184,-4.0303,-4.0313,-4.0323,-4.0413,-4.0436,-4.0455,0,0,0,0,0,0,-4.0029,-4.0025,-3.9997,-4.0089,-4.0105,-4.0105,-4.0156,-4.0122,-4.0152,-4.0142,-4.0106,-4.0109,-4.0194,-4.0197,-4.014,-4.0293,-4.0223,-4.0236,-4.0287,-4.0308,-4.0325,-4.0322,-4.0058,0,0,0,0,0,-4.006,-4.0105,-4.01,-4.0181,-4.0191,-4.0173,-4.0196,-4.0173,-4.0189,-4.0195,-4.0195,-4.0213,-4.0254,-4.0281,-4.0319,-4.0422,-4.0423,-4.0472,-4.0489,-4.0503,-4.0514,-4.0571,-4.0593,-4.036,-4.036,-4.036,0,0,-4.0123,-4.0127,-4.0157,-4.0199,-4.0209,-4.0258,-4.0179,-4.0233,-4.0269,-4.0203,-4.0276,-4.0278,-4.0295,-4.0387,-4.0427,-4.0392,-4.0579,-4.0516,-4.0527,-4.053,-4.0583,-4.0605,-4.0625,-4.0367,-4.0366,-4.0365,0,0,-4.0263,-4.0271,-4.034,-4.0352,-4.0369,-4.0357,-4.0374,-4.0381,-4.0379,-4.0452,-4.0405,-4.0448,-4.0519,-4.0534,-4.0551,-4.0703,-4.0664,-4.0716,-4.0804,-4.086,-4.0879,-4.0895,-4.0949,-4.0969,-4.0728,-4.0728,-4.0728,0,-4.034,-4.041,-4.038,-4.0438,-4.0459,-4.0403,-4.0474,-4.0488,-4.0516,-4.0532,-4.0493,-4.0583,-4.0591,-4.0686,-4.0723,-4.0739,-4.0758,-4.0714,-4.0878,-4.0894,-4.0909,-4.0961,-4.0981,-4.0734,-4.0734,-4.0733,-4.0732,0,-4.0504,-4.0555,-4.0609,-4.0638,-4.0665,-4.073,-4.071,-4.0742,-4.0718,-4.0711,-4.0788,-4.0797,-4.0835,-4.0857,-4.0833,-4.095,-4.0928,-4.0884,-4.0813,-4.0938,-4.0986,-4.1005,-4.0743,-4.0741,-4.0739,-4.0738,0,0,-4.0698,-4.0713,-4.0734,-4.0747,-4.0764,-4.0803,-4.0867,-4.0905,-4.0933,-4.0956,-4.1009,-4.1073,-4.1034,-4.1054,-4.1032,-4.1081,-4.1203,-4.1032,-4.1032,-4.1063,-4.1333,-4.1365,-4.1388,-4.1178,-4.1182,-4.1184,-4.1332,0,-4.0837,-4.0944,-4.0921,-4.1028,-4.1075,-4.1025,-4.1081,-4.1098,-4.1095,-4.1135,-4.1131,-4.1177,-4.1122,-4.1133,-4.118,-4.1178,-4.1256,-4.1167,-4.1227,-4.123,-4.1223,-4.1413,-4.1446,-4.1584,-4.135,-4.1353,-4.1355,0,-4.1011,-4.1042,-4.1154,-4.1166,-4.1185,-4.1235,-4.127,-4.1309,-4.1329,-4.1323,-4.1348,-4.1318,-4.1383,-4.1313,-4.1402,-4.1343,-4.1367,-4.137,-4.1375,-4.1378,-4.1299,-4.1421,-4.1628,-4.1648,-4.1385,-4.1382,-4.138,0,-4.1142,-4.1212,-4.1288,-4.1301,-4.1317,-4.1354,-4.1362,-4.1378,-4.1404,-4.1436,-4.1453,-4.1492,-4.1513,-4.1544,-4.1527,-4.1477,-4.1621,-4.1548,-4.1618,-4.1619,-4.1649,-4.1647,-4.1861,-4.1666,-4.1666,-4.1666,-4.1665,0,-4.1298,-4.1368,-4.1347,-4.1394,-4.1472,-4.1446,-4.1525,-4.1527,-4.1543,-4.1591,-4.1551,-4.1597,-4.1571,-4.1616,-4.1603,-4.168,-4.169,-4.1688,-4.1684,-4.1691,-4.1691,-4.1705,-4.1694,-4.1671,-4.167,-4.1669,-4.1668,0,-4.1455,-4.1444,-4.1524,-4.1534,-4.1538,-4.1596,-4.1604,-4.1649,-4.1644,-4.1705,-4.1718,-4.1711,-4.1762,-4.1748,-4.1803,-4.1795,-4.1893,-4.1876,-4.1886,-4.1881,-4.1952,-4.1945,-4.2181,-4.2212,-4.1998,-4.2,-4.2002,0,-4.1555,-4.1608,-4.1625,-4.1654,-4.1666,-4.1713,-4.174,-4.1718,-4.1748,-4.1777,-4.1819,-4.1867,-4.1903,-4.1987,-4.1987,-4.203,-4.2014,-4.2094,-4.202,-4.2027,-4.2015,-4.2012,-4.2018,-4.2108,-4.2111,-4.2113,-4.2114,0,-4.1733,-4.1726,-4.1765,-4.1805,-4.1839,-4.1869,-4.1895,-4.1922,-4.1902,-4.1938,-4.199,-4.2019,-4.2077,-4.2125,-4.2165,-4.2175,-4.2142,-4.2139,-4.2157,-4.2164,-4.2167,-4.2167,-4.1925,-4.2132,-4.2131,-4.2129,-4.2128,-4.2128,-4.1864,-4.191,-4.1929,-4.1976,-4.1995,-4.2021,-4.2064,-4.2066,-4.2109,-4.2154,-4.214,-4.2199,-4.2222,-4.2272,-4.2288,-4.2335,-4.2305,-4.2331,-4.2338,-4.2345,-4.2353,-4.2161,-4.2343,-4.2342,-4.2342,-4.2341,-4.2341,0,-4.2039,-4.2051,-4.2095,-4.2134,-4.2172,-4.2139,-4.2168,-4.2202,-4.2255,-4.2278,-4.2316,-4.2378,-4.2425,-4.2431,-4.2477,-4.2514,-4.25,-4.2527,-4.2523,-4.2526,-4.2378,-4.2357,-4.2537,-4.2537,-4.2537,-4.2537,-4.2537,-4.2537,-4.2135,-4.2211,-4.2208,-4.2294,-4.2305,-4.2363,-4.2383,-4.2408,-4.2427,-4.2497,-4.2537,-4.2541,-4.2558,-4.2605,-4.2649,-4.2649,-4.2668,-4.27,-4.2695,-4.2556,-4.2536,-4.2517,-4.2498,-4.2704,-4.2704,-4.2839,-4.284,-4.2841]},{"header":{"parameterUnit":"m.s-1","parameterCategory":1,"la1":30.2991,"la2":30.254,"lo1":-89.0895,"lo2":-89.0444,"dy":0.0017,"dx":0.0017,"nx":28,"ny":28,"refTime":"2025-12-21T09:00:00:Z","depth":0,"parameterNumber":3,"parameterNumberName":"V-component_of_WINDS"},"data":[0,0,0,0,0,0,0,0,0,0,0,0,0,0,0,0,0,0,0,0,0,0,0,0,0,0,0,0,0,0,0,0,0,0,0,0,0,0,0,0,0,0,0,0,0,0,0,0,0,0,0,0,0,0,0,0,0,0,0.7638,0.7638,0,0.7709,0.771,0.7711,0.7756,0.7756,0.7757,0.7757,0.7828,0.7829,0.7831,0,0,0,0,0,0,0,0,0,0,0,0,0,0.7542,0.7543,0.7638,0.7638,0.7639,0.7709,0.771,0.7711,0.7756,0.7756,0.7757,0.7757,0.7827,0.7829,0.7831,0,0,0,0,0,0,0,0,0,0,0,0,0,0.7595,0.7544,0.7637,0.767,0.7674,0.7709,0.771,0.7711,0.7756,0.7757,0.7757,0.7757,0.7827,0.7829,0.7831,0.7838,0,0,0.7839,0.784,0,0,0,0,0,0,0,0,0.7592,0.7598,0.7665,0.7668,0.7672,0.7724,0.7702,0.7754,0.7756,0.7725,0.7757,0.7758,0.7793,0.7798,0.7811,0.7841,0.7844,0.7839,0.7841,0.7842,0.7842,0,0,0,0,0,0,0,0.7588,0.7596,0.7666,0.7666,0.767,0.7682,0.769,0.7712,0.7756,0.7728,0.7731,0.7739,0.7795,0.7808,0.7813,0.7845,0.7839,0.7841,0.7843,0.7844,0.789,0.7889,0,0,0,0,0,0,0.7579,0.7592,0.7664,0.7668,0.7632,0.7683,0.7692,0.7707,0.7755,0.7763,0.7739,0.7741,0.7804,0.781,0.7815,0.7829,0.7842,0.7844,0.7845,0.789,0.7889,0.7889,0,0,0,0,0,0,0.7577,0.7585,0.7661,0.7631,0.7642,0.7685,0.7701,0.7708,0.7721,0.7764,0.7772,0.7744,0.7804,0.7812,0.7833,0.7832,0.7845,0.7847,0.789,0.789,0.7889,0.7854,0,0,0,0,0,0,0.7574,0.7584,0.7587,0.7631,0.7643,0.7677,0.7701,0.7709,0.7726,0.7729,0.7771,0.7778,0.7805,0.7829,0.7836,0.7835,0.7849,0.789,0.789,0.7889,0.7855,0.7852,0.785,0,0,0,0,0,0.757,0.7572,0.7586,0.7595,0.7647,0.7677,0.7684,0.7715,0.7725,0.7729,0.7757,0.7777,0.7831,0.7831,0.7838,0.7839,0.7891,0.789,0.789,0.7857,0.7853,0.785,0,0,0,0,0,0,0.7525,0.7579,0.7595,0.7611,0.7639,0.7684,0.7689,0.771,0.7735,0.7737,0.7775,0.7784,0.7802,0.7823,0.7822,0.785,0.7863,0.7864,0.7836,0.7833,0.783,0.7825,0.7851,0,0,0,0,0,0.7517,0.7537,0.7583,0.7593,0.7606,0.7645,0.7659,0.7682,0.7712,0.7724,0.7753,0.7782,0.7806,0.782,0.7844,0.7859,0.787,0.7863,0.786,0.7858,0.7858,0.7871,0.7869,0.7887,0.7887,0.7887,0,0,0.75,0.7532,0.7542,0.7585,0.7609,0.7629,0.7655,0.7674,0.769,0.7727,0.7749,0.7772,0.7807,0.7826,0.7835,0.7843,0.7856,0.7857,0.7855,0.7857,0.787,0.7868,0.7866,0.7887,0.7887,0.7887,0,0,0.7481,0.7506,0.7519,0.7544,0.7581,0.7608,0.7611,0.7654,0.7671,0.7695,0.7724,0.7744,0.7783,0.7807,0.7825,0.7819,0.7839,0.7826,0.7811,0.7822,0.7821,0.782,0.782,0.7819,0.7826,0.7826,0.7826,0,0.7455,0.7487,0.7522,0.7542,0.7561,0.7597,0.7611,0.7633,0.7676,0.7688,0.7697,0.775,0.7775,0.7802,0.7801,0.7813,0.7819,0.7821,0.7818,0.7818,0.7817,0.7817,0.7817,0.7824,0.7824,0.7824,0.7825,0,0.7455,0.7477,0.7483,0.7526,0.7545,0.7561,0.76,0.7616,0.7637,0.7663,0.7689,0.7721,0.7754,0.7762,0.7782,0.7793,0.7797,0.7811,0.7826,0.7813,0.7814,0.7814,0.7821,0.7822,0.7823,0.7823,0,0,0.7406,0.7472,0.7473,0.7495,0.754,0.7558,0.7577,0.7611,0.7624,0.7654,0.7672,0.7706,0.7721,0.7741,0.7765,0.7775,0.7771,0.7789,0.779,0.7786,0.7787,0.7777,0.7776,0.7785,0.7785,0.7786,0.7785,0,0.7395,0.7431,0.7466,0.749,0.7512,0.7549,0.7566,0.7596,0.7622,0.7645,0.7673,0.7698,0.7715,0.7727,0.7739,0.7769,0.7772,0.777,0.7803,0.7804,0.7794,0.7776,0.7764,0.7762,0.7785,0.7786,0.7786,0,0.7385,0.7416,0.7443,0.749,0.75,0.7515,0.755,0.7571,0.7608,0.7626,0.765,0.7676,0.7699,0.7712,0.7745,0.7743,0.7759,0.7776,0.7777,0.7781,0.7794,0.7781,0.7762,0.7762,0.7786,0.7786,0.7786,0,0.735,0.7397,0.742,0.7437,0.7492,0.7502,0.7525,0.7562,0.7581,0.7612,0.7625,0.7658,0.7676,0.7701,0.7736,0.7741,0.7766,0.7781,0.7783,0.7782,0.7786,0.7785,0.777,0.7795,0.7795,0.7795,0.7795,0,0.7334,0.7349,0.7406,0.742,0.7439,0.7479,0.7497,0.7524,0.7557,0.7578,0.7611,0.7629,0.7674,0.7699,0.7726,0.7751,0.7758,0.7774,0.7781,0.7772,0.777,0.7783,0.7784,0.7795,0.7795,0.7795,0.7795,0,0.7297,0.7335,0.7363,0.7414,0.7427,0.7439,0.7483,0.7499,0.7528,0.7554,0.7563,0.7608,0.7639,0.7676,0.7718,0.7737,0.776,0.777,0.7748,0.7752,0.7753,0.7753,0.7745,0.7747,0.777,0.777,0.7769,0,0.7284,0.7298,0.7351,0.7368,0.7391,0.7417,0.7438,0.7479,0.7499,0.7543,0.7554,0.7588,0.7617,0.7665,0.7702,0.7735,0.7747,0.7743,0.7752,0.7743,0.7749,0.7748,0.7751,0.774,0.7739,0.7739,0.7739,0,0.7259,0.7278,0.7307,0.7343,0.7367,0.7397,0.7429,0.7441,0.7488,0.7509,0.7542,0.7565,0.761,0.7644,0.7683,0.7707,0.7731,0.7736,0.7738,0.7728,0.7716,0.7724,0.7742,0.7735,0.7736,0.7736,0.7736,0.7736,0.7235,0.725,0.729,0.7322,0.7351,0.738,0.7399,0.7431,0.746,0.75,0.7523,0.7556,0.7595,0.765,0.7674,0.77,0.7709,0.7712,0.7713,0.7713,0.7711,0.7711,0.7707,0.7708,0.7708,0.7708,0.7708,0,0.7213,0.7241,0.727,0.7315,0.734,0.7362,0.7399,0.7419,0.7448,0.7483,0.7512,0.7551,0.7585,0.7626,0.7662,0.7676,0.7688,0.7685,0.7684,0.769,0.7701,0.7696,0.7674,0.7674,0.7674,0.7674,0.7674,0.7674,0.7204,0.7231,0.7256,0.7298,0.7327,0.736,0.738,0.7408,0.7436,0.7479,0.7508,0.7535,0.7573,0.7613,0.7646,0.7657,0.7669,0.7662,0.7677,0.7686,0.7689,0.7692,0.7687,0.7664,0.7664,0.7664,0.7664,0.7664]}]]